User: anonymous
Location: Kitchener
(43.2612°N, 80.5078°W)
Time: 13:48:50
(UTC+02:00)
Language:

Iridium 57 - Orbit

View from above orbital plane
View from above orbital plane
View from above satellite
View from above satellite

Ground track
Ground track

The orbit data is extracted from the following two-line orbital elements,

1 25273U 98019B   14272.33420493  .00000534  00000-0  18355-3 0  9212
2 25273 086.3999 341.8899 0002263 108.4336 251.7106 14.34215030863906
Epoch (UTC): 29 September 2014 08:01:15
Eccentricity: 0.0002263
inclination: 86.3999°
perigee height: 776 km
apogee height: 779 km
right ascension of ascending node: 341.8899°
argument of perigee: 108.4336°
revolutions per day: 14.34215030
mean anomaly at epoch: 251.7106°
orbit number at epoch: 86390

The dashed part of the orbit path shows where the satellite is in the earth's shadow,  

DLR